Weather in Guantanamo

Cuba     20°08′11″N   75°12′47″W
temp.,
°C
wind,
m/s
gust,
m/s
humid.,
%
clouds,
%
prec.,
mm/h
press.,
hPa
HPBL,
m
28 september, tue
tue2823:00+22nne11915 0.8 101517
02:00+22n11925 1.5 101417
05:00+21n11934 0.0 101315
08:00+23nne11850 0.0 101488
11:00+31s12529 0.0 10141444
14:00+32ssw324476 0.0 10111598
17:00+28sse237146 2.9 1011284
20:00+23wsw01882 7.0 101311
29 september, wed
wed2923:00+22n119398 5.3 101419
02:00+22n119299 5.8 101313
05:00+22n11913 0.0 101211
08:00+23n11860 0.0 101364
11:00+30s11559 0.0 10141200
14:00+31s224969 0.3 10111772
17:00+27ssw027499 4.1 1011262
20:00+24n118616 5.2 101313
30 september, thu
thu3023:00+22e369499 9.4 1014206
02:00+21nw228899 9.5 101327
05:00+21nne218999 0.0 101222
08:00+23n118860 0.0 101368
11:00+29sse125719 0.0 10141138
14:00+30n115863 1.5 10121302
17:00+26n237891 5.4 1011222
20:00+23nne229039 7.8 101343
1 october, fri
fri123:00+22n229414 0.6 101436
02:00+21nne219435 1.1 101321
05:00+21n229366 0.0 101321
08:00+23n118988 0.0 101475
11:00+29ene236155 0.4 10151284
14:00+31se225484 1.5 10131500
17:00+27sw1178100 5.5 1012256
20:00+23nne228897 7.0 101434
2 october, sat
sat223:00+22n219396 0.4 101618
02:00+21nne229351 0.6 101420
05:00+21n229473 0.1 101321
08:00+23n129040 0.1 101477
11:00+29e3458100 0.0 10151426
14:00+28se3467100 0.9 1013663
17:00+25nne1183100 6.4 101228
20:00+23nne1189100 7.6 101419